• In Denmark
  • List of Countries
  • For 7 days
  • Water Temperature
  • Satellite Maps
  • Weather Map
  • Weather Widgets
  • user-avatar
    Login

    Hourly Weather Townsville

    Today, 19 November, Sunday

    Time Temperature Precipitation Wind Pressure Humidity
    00:00 +25°C° 0 mm 4 mps 751 mmHg 85%
    01:00 +25°C° 0 mm 3 mps 751 mmHg 85%
    02:00 +25°C° 0 mm 3 mps 751 mmHg 86%
    03:00 +25°C° 0 mm 3 mps 751 mmHg 87%
    04:00 +25°C° 0 mm 3 mps 751 mmHg 89%
    05:00 +25°C° 0 mm 3 mps 751 mmHg 86%
    06:00 +26°C° 0 mm 3 mps 751 mmHg 82%
    07:00 +27°C° 0 mm 3 mps 752 mmHg 79%
    08:00 +28°C° 0 mm 4 mps 752 mmHg 74%
    09:00 +29°C° 0 mm 4 mps 752 mmHg 68%
    10:00 +32°C° 0 mm 4 mps 752 mmHg 57%
    11:00 +32°C° 0 mm 4 mps 752 mmHg 57%
    12:00 +32°C° 0 mm 4 mps 751 mmHg 56%
    13:00 +32°C° 0 mm 4 mps 751 mmHg 56%
    14:00 +32°C° 0 mm 5 mps 751 mmHg 57%
    15:00 +32°C° 0 mm 5 mps 750 mmHg 58%
    16:00 +30°C° 0 mm 5 mps 750 mmHg 59%
    17:00 +29°C° 0 mm 5 mps 750 mmHg 66%
    18:00 +28°C° 0 mm 5 mps 750 mmHg 72%
    19:00 +26°C° 0 mm 5 mps 751 mmHg 79%
    20:00 +26°C° 0 mm 5 mps 751 mmHg 80%
    21:00 +26°C° 0 mm 5 mps 751 mmHg 81%
    22:00 +26°C° 0 mm 5 mps 752 mmHg 83%
    23:00 +25°C° 0.1 mm 5 mps 752 mmHg 83%

    Tomorrow, 20 November, Monday

    Time Temperature Precipitation Wind Pressure Humidity
    00:00 +25°C° 0.1 mm 5 mps 752 mmHg 84%
    01:00 +25°C° 0.1 mm 5 mps 752 mmHg 85%
    02:00 +25°C° 0.2 mm 5 mps 752 mmHg 86%
    03:00 +25°C° 0.2 mm 4 mps 752 mmHg 87%
    04:00 +25°C° 0.2 mm 4 mps 752 mmHg 88%
    05:00 +25°C° 0.2 mm 4 mps 752 mmHg 85%
    06:00 +26°C° 0.2 mm 4 mps 753 mmHg 83%
    07:00 +26°C° 0.2 mm 4 mps 753 mmHg 80%
    08:00 +28°C° 0.2 mm 4 mps 753 mmHg 73%
    09:00 +29°C° 0.2 mm 4 mps 753 mmHg 67%
    10:00 +30°C° 0.2 mm 4 mps 753 mmHg 60%
    11:00 +32°C° 0.3 mm 4 mps 752 mmHg 58%
    12:00 +32°C° 0.3 mm 5 mps 752 mmHg 56%
    13:00 +33°C° 0.3 mm 5 mps 752 mmHg 55%
    14:00 +32°C° 0.2 mm 5 mps 751 mmHg 57%
    15:00 +32°C° 0.2 mm 5 mps 751 mmHg 59%
    16:00 +30°C° 0.2 mm 5 mps 751 mmHg 61%
    17:00 +29°C° 0.1 mm 5 mps 751 mmHg 67%
    18:00 +27°C° 0.1 mm 5 mps 751 mmHg 74%
    19:00 +26°C° 0.1 mm 6 mps 752 mmHg 80%
    20:00 +26°C° 0.1 mm 6 mps 752 mmHg 81%
    21:00 +26°C° 0.1 mm 6 mps 753 mmHg 82%
    22:00 +24°C° 0.1 mm 7 mps 753 mmHg 82%
    23:00 +24°C° 0.3 mm 6 mps 753 mmHg 83%

    Day after tomorrow, 21 November, Tuesday

    Time Temperature Precipitation Wind Pressure Humidity
    00:00 +24°C° 0.3 mm 6 mps 753 mmHg 83%
    01:00 +25°C° 0.3 mm 5 mps 753 mmHg 84%
    02:00 +25°C° 1.4 mm 5 mps 752 mmHg 85%
    03:00 +23°C° 1.4 mm 5 mps 752 mmHg 87%
    04:00 +23°C° 1.4 mm 4 mps 752 mmHg 89%
    05:00 +23°C° 0.2 mm 4 mps 752 mmHg 88%
    06:00 +23°C° 0.2 mm 4 mps 752 mmHg 86%
    07:00 +23°C° 0.2 mm 4 mps 753 mmHg 85%
    08:00 +26°C° 0.3 mm 5 mps 753 mmHg 77%
    09:00 +28°C° 0.3 mm 5 mps 753 mmHg 69%
    10:00 +30°C° 0.3 mm 5 mps 753 mmHg 61%
    11:00 +30°C° 0.3 mm 5 mps 752 mmHg 59%
    12:00 +30°C° 0.3 mm 5 mps 752 mmHg 58%
    13:00 +32°C° 0.3 mm 6 mps 751 mmHg 56%
    14:00 +30°C° 0.1 mm 6 mps 751 mmHg 57%
    15:00 +30°C° 0.1 mm 6 mps 750 mmHg 58%
    16:00 +30°C° 0.1 mm 6 mps 750 mmHg 59%
    17:00 +28°C° 0 mm 6 mps 750 mmHg 65%
    18:00 +27°C° 0 mm 6 mps 750 mmHg 71%
    19:00 +26°C° 0 mm 5 mps 751 mmHg 78%
    20:00 +26°C° 0.1 mm 6 mps 751 mmHg 79%
    21:00 +24°C° 0.1 mm 6 mps 751 mmHg 79%
    22:00 +24°C° 0.1 mm 6 mps 752 mmHg 80%
    23:00 +24°C° 0.2 mm 6 mps 751 mmHg 81%

    22 November, Wednesday

    Time Temperature Precipitation Wind Pressure Humidity
    00:00 +25°C° 0.2 mm 5 mps 751 mmHg 83%
    01:00 +25°C° 0.2 mm 5 mps 751 mmHg 84%
    02:00 +23°C° 0.4 mm 4 mps 750 mmHg 85%
    03:00 +23°C° 0.4 mm 4 mps 750 mmHg 87%
    04:00 +24°C° 0.4 mm 3 mps 750 mmHg 88%
    05:00 +25°C° 0.1 mm 3 mps 750 mmHg 86%
    06:00 +25°C° 0.1 mm 3 mps 750 mmHg 84%
    07:00 +25°C° 0.1 mm 3 mps 751 mmHg 83%
    08:00 +26°C° 0.3 mm 4 mps 751 mmHg 80%
    09:00 +27°C° 0.3 mm 4 mps 751 mmHg 76%
    10:00 +28°C° 0.3 mm 4 mps 751 mmHg 73%
    11:00 +29°C° 0.5 mm 4 mps 750 mmHg 69%
    12:00 +29°C° 0.5 mm 4 mps 750 mmHg 66%
    13:00 +30°C° 0.5 mm 4 mps 749 mmHg 62%
    14:00 +30°C° 0.9 mm 4 mps 749 mmHg 64%
    15:00 +29°C° 0.9 mm 5 mps 749 mmHg 66%
    16:00 +29°C° 0.9 mm 5 mps 748 mmHg 68%
    17:00 +28°C° 0 mm 5 mps 748 mmHg 73%
    18:00 +27°C° 0 mm 5 mps 749 mmHg 77%
    19:00 +26°C° 0 mm 6 mps 749 mmHg 81%
    20:00 +26°C° 0.4 mm 6 mps 749 mmHg 83%
    21:00 +24°C° 0.4 mm 6 mps 749 mmHg 84%
    22:00 +24°C° 0.4 mm 6 mps 750 mmHg 85%
    23:00 +25°C° 1.5 mm 5 mps 750 mmHg 87%

    23 November, Thursday

    Time Temperature Precipitation Wind Pressure Humidity
    00:00 +25°C° 1.5 mm 4 mps 750 mmHg 89%
    01:00 +23°C° 1.5 mm 4 mps 750 mmHg 91%
    02:00 +24°C° 0.7 mm 3 mps 750 mmHg 92%
    03:00 +24°C° 0.7 mm 3 mps 749 mmHg 92%
    04:00 +24°C° 0.7 mm 3 mps 749 mmHg 93%
    05:00 +25°C° 0.5 mm 3 mps 750 mmHg 91%
    06:00 +25°C° 0.5 mm 3 mps 750 mmHg 89%
    07:00 +26°C° 0.5 mm 3 mps 750 mmHg 87%
    08:00 +26°C° 0.1 mm 3 mps 750 mmHg 82%
    09:00 +27°C° 0.1 mm 3 mps 751 mmHg 78%
    10:00 +28°C° 0.1 mm 3 mps 751 mmHg 73%
    11:00 +29°C° 0.4 mm 4 mps 750 mmHg 70%
    12:00 +30°C° 0.4 mm 4 mps 750 mmHg 66%
    13:00 +32°C° 0.4 mm 4 mps 749 mmHg 63%
    14:00 +30°C° 0.3 mm 4 mps 749 mmHg 67%
    15:00 +29°C° 0.3 mm 4 mps 749 mmHg 71%
    16:00 +28°C° 0.3 mm 4 mps 748 mmHg 75%
    17:00 +28°C° 0.5 mm 4 mps 749 mmHg 79%
    18:00 +27°C° 0.5 mm 4 mps 750 mmHg 83%
    19:00 +26°C° 0.5 mm 4 mps 750 mmHg 87%
    20:00 +26°C° 1.2 mm 4 mps 751 mmHg 88%
    21:00 +25°C° 1.2 mm 4 mps 751 mmHg 89%
    22:00 +25°C° 1.2 mm 4 mps 751 mmHg 90%
    23:00 +25°C° 0.5 mm 4 mps 751 mmHg 91%

    24 November, Friday

    Time Temperature Precipitation Wind Pressure Humidity
    00:00 +25°C° 0.5 mm 4 mps 751 mmHg 91%
    01:00 +25°C° 0.5 mm 3 mps 751 mmHg 92%
    02:00 +24°C° 0.4 mm 3 mps 751 mmHg 92%
    03:00 +24°C° 0.4 mm 3 mps 750 mmHg 93%
    04:00 +24°C° 0.4 mm 3 mps 750 mmHg 93%
    05:00 +25°C° 0.1 mm 3 mps 751 mmHg 90%
    06:00 +26°C° 0.1 mm 3 mps 751 mmHg 87%
    07:00 +26°C° 0.1 mm 3 mps 752 mmHg 84%
    08:00 +28°C° 0.1 mm 3 mps 752 mmHg 77%
    09:00 +30°C° 0.1 mm 3 mps 752 mmHg 70%
    10:00 +31°C° 0.1 mm 3 mps 752 mmHg 63%
    11:00 +33°C° 0.3 mm 3 mps 751 mmHg 61%
    12:00 +33°C° 0.3 mm 4 mps 751 mmHg 59%
    13:00 +34°C° 0.3 mm 4 mps 750 mmHg 57%
    14:00 +33°C° 0.1 mm 4 mps 750 mmHg 59%
    15:00 +33°C° 0.1 mm 4 mps 750 mmHg 61%
    16:00 +32°C° 0.1 mm 4 mps 750 mmHg 63%
    17:00 +30°C° 0 mm 4 mps 750 mmHg 70%
    18:00 +29°C° 0 mm 3 mps 751 mmHg 76%
    19:00 +27°C° 0 mm 3 mps 751 mmHg 83%
    20:00 +27°C° 0 mm 3 mps 752 mmHg 84%
    21:00 +27°C° 0 mm 3 mps 752 mmHg 86%
    22:00 +27°C° 0 mm 3 mps 753 mmHg 88%
    23:00 +26°C° 0.1 mm 2 mps 752 mmHg 89%
    Show more